Погода в Мараксе 1-ой

Россия / Томская область     58°23′06″N   83°04′40″E
темп.,
°C
ветер,
м/с
пор.,
м/с
влажн.,
%
обл.,
%
осадки,
мм/ч
давл.,
гПа
погр.,
м
4 июля, пн
пн401:00+10зсз249795 0.0 100572
04:00+9з229798 0.0 100528
07:00+11з2389100 0.0 1006152
10:00+17ссз126296 0.0 1006787
13:00+19ссв1155100 0.0 10061311
16:00+20св11526 0.0 10061261
19:00+20всв115443 0.0 10061491
22:00+15всв248118 0.0 100569
5 июля, вт
вт501:00+12в3689100 0.0 1006114
04:00+11в289026 0.0 1005148
07:00+13всв388230 0.0 1004241
10:00+19в4659100 0.0 1004807
13:00+22в4649100 0.0 10032068
16:00+20всв4861100 0.0 1002701
19:00+19св4106599 0.0 1002599
22:00+17св4117076 0.0 1002536
6 июля, ср
ср601:00+16св41374100 0.0 1002491
04:00+15св51469100 0.0 1002493
07:00+13св51385100 0.4 1002389
10:00+19всв596099 0.1 1003747
13:00+21всв6757100 0.1 10041072
16:00+19св486465 0.1 1004549
19:00+23ссв475337 0.1 10041732
22:00+18ссв3116428 0.0 1006398
7 июля, чт
чт701:00+13с3107065 0.0 1006211
04:00+14с4106469 0.0 1007283
07:00+14ссв411698 0.0 1008355
10:00+19ссв57461 0.0 1009914
13:00+22ссв56360 0.0 10102049
16:00+23с463435 0.0 10102678
19:00+21ссз58508 0.0 1010888
22:00+17ссз3967100 0.0 1011322
8 июля, пт
пт801:00+16с31067100 0.0 1011307
04:00+14с387817 0.0 1011177
07:00+15с27776 0.0 1011208
10:00+21ссв36515 0.0 1011705
13:00+25ссв33361 0.0 10112411
16:00+25с343536 0.0 10102363
19:00+24всв354812 0.0 1010829
22:00+18с22661 0.0 101018